• In Russia
  • List of Countries
  • For 7 days
  • Water Temperature
  • Satellite Maps
  • Weather Map
  • Weather Widgets
  • user-avatar
    Login

    Hourly Weather Fier

    Today, 17 July, Wednesday

    Time Temperature Precipitation Wind Pressure Humidity
    00:00 +19°C° 0 mm 3 mps 755 mmHg 82%
    01:00 +20°C° 0 mm 3 mps 755 mmHg 80%
    02:00 +19°C° 0 mm 3 mps 755 mmHg 80%
    03:00 +19°C° 0 mm 3 mps 755 mmHg 80%
    04:00 +19°C° 0 mm 3 mps 755 mmHg 80%
    05:00 +20°C° 0 mm 3 mps 755 mmHg 75%
    06:00 +22°C° 0 mm 3 mps 755 mmHg 71%
    07:00 +24°C° 0 mm 3 mps 755 mmHg 67%
    08:00 +26°C° 0 mm 3 mps 756 mmHg 59%
    09:00 +28°C° 0 mm 3 mps 756 mmHg 52%
    10:00 +30°C° 0 mm 2 mps 756 mmHg 44%
    11:00 +30°C° 0 mm 3 mps 756 mmHg 44%
    12:00 +30°C° 0 mm 4 mps 756 mmHg 43%
    13:00 +32°C° 0 mm 5 mps 756 mmHg 43%
    14:00 +30°C° 0 mm 5 mps 756 mmHg 46%
    15:00 +30°C° 0 mm 5 mps 756 mmHg 49%
    16:00 +29°C° 0 mm 6 mps 756 mmHg 51%
    17:00 +27°C° 0 mm 5 mps 756 mmHg 58%
    18:00 +26°C° 0 mm 4 mps 756 mmHg 65%
    19:00 +24°C° 0 mm 3 mps 756 mmHg 72%
    20:00 +24°C° 0 mm 2 mps 756 mmHg 74%
    21:00 +23°C° 0 mm 1 mps 757 mmHg 75%
    22:00 +22°C° 0 mm 1 mps 757 mmHg 77%
    23:00 +22°C° 0 mm 1 mps 757 mmHg 76%

    Tomorrow, 18 July, Thursday

    Time Temperature Precipitation Wind Pressure Humidity
    00:00 +22°C° 0 mm 1 mps 757 mmHg 75%
    01:00 +22°C° 0 mm 1 mps 757 mmHg 74%
    02:00 +22°C° 0 mm 1 mps 757 mmHg 74%
    03:00 +21°C° 0 mm 1 mps 757 mmHg 73%
    04:00 +21°C° 0 mm 1 mps 757 mmHg 72%
    05:00 +22°C° 0 mm 1 mps 757 mmHg 68%
    06:00 +24°C° 0 mm 1 mps 757 mmHg 63%
    07:00 +25°C° 0 mm 1 mps 757 mmHg 59%
    08:00 +27°C° 0 mm 1 mps 757 mmHg 55%
    09:00 +28°C° 0 mm 2 mps 757 mmHg 52%
    10:00 +29°C° 0 mm 2 mps 758 mmHg 48%
    11:00 +30°C° 0 mm 3 mps 757 mmHg 47%
    12:00 +30°C° 0 mm 3 mps 757 mmHg 47%
    13:00 +32°C° 0 mm 4 mps 757 mmHg 46%
    14:00 +30°C° 0 mm 4 mps 757 mmHg 47%
    15:00 +30°C° 0 mm 3 mps 757 mmHg 49%
    16:00 +29°C° 0 mm 3 mps 757 mmHg 50%
    17:00 +28°C° 0 mm 2 mps 757 mmHg 54%
    18:00 +27°C° 0 mm 1 mps 757 mmHg 59%
    19:00 +23°C° 0 mm 0 mps 757 mmHg 63%
    20:00 +23°C° 0 mm 0 mps 758 mmHg 65%
    21:00 +24°C° 0 mm 1 mps 758 mmHg 66%
    22:00 +24°C° 0 mm 1 mps 759 mmHg 68%
    23:00 +23°C° 0 mm 1 mps 759 mmHg 68%

    Day after tomorrow, 19 July, Friday

    Time Temperature Precipitation Wind Pressure Humidity
    00:00 +21°C° 0 mm 0 mps 759 mmHg 69%
    01:00 +21°C° 0 mm 0 mps 759 mmHg 70%
    02:00 +22°C° 0 mm 1 mps 759 mmHg 70%
    03:00 +22°C° 0 mm 1 mps 759 mmHg 70%
    04:00 +22°C° 0 mm 1 mps 759 mmHg 70%
    05:00 +23°C° 0 mm 1 mps 759 mmHg 66%
    06:00 +25°C° 0 mm 1 mps 759 mmHg 61%
    07:00 +26°C° 0 mm 1 mps 759 mmHg 57%
    08:00 +28°C° 0 mm 1 mps 759 mmHg 52%
    09:00 +29°C° 0 mm 2 mps 760 mmHg 47%
    10:00 +30°C° 0 mm 2 mps 760 mmHg 42%
    11:00 +31°C° 0 mm 3 mps 760 mmHg 42%
    12:00 +32°C° 0 mm 4 mps 760 mmHg 42%
    13:00 +32°C° 0 mm 4 mps 759 mmHg 41%
    14:00 +32°C° 0 mm 4 mps 759 mmHg 43%
    15:00 +30°C° 0 mm 4 mps 759 mmHg 44%
    16:00 +30°C° 0 mm 4 mps 759 mmHg 46%
    17:00 +28°C° 0 mm 3 mps 759 mmHg 51%
    18:00 +27°C° 0 mm 2 mps 760 mmHg 57%
    19:00 +26°C° 0 mm 1 mps 760 mmHg 63%
    20:00 +25°C° 0 mm 1 mps 760 mmHg 63%
    21:00 +25°C° 0 mm 1 mps 760 mmHg 63%
    22:00 +24°C° 0 mm 1 mps 761 mmHg 63%
    23:00 +24°C° 0 mm 1 mps 761 mmHg 64%

    20 July, Saturday

    Time Temperature Precipitation Wind Pressure Humidity
    00:00 +24°C° 0 mm 1 mps 761 mmHg 65%
    01:00 +23°C° 0 mm 1 mps 761 mmHg 65%
    02:00 +23°C° 0 mm 1 mps 760 mmHg 66%
    03:00 +23°C° 0 mm 1 mps 760 mmHg 67%
    04:00 +23°C° 0 mm 1 mps 760 mmHg 68%
    05:00 +24°C° 0 mm 1 mps 761 mmHg 64%
    06:00 +25°C° 0 mm 1 mps 761 mmHg 60%
    07:00 +27°C° 0 mm 1 mps 761 mmHg 56%
    08:00 +28°C° 0 mm 2 mps 761 mmHg 51%
    09:00 +30°C° 0 mm 2 mps 761 mmHg 47%
    10:00 +31°C° 0 mm 3 mps 761 mmHg 42%
    11:00 +33°C° 0 mm 3 mps 761 mmHg 42%
    12:00 +33°C° 0 mm 4 mps 761 mmHg 41%
    13:00 +33°C° 0 mm 5 mps 761 mmHg 40%
    14:00 +33°C° 0 mm 4 mps 761 mmHg 42%
    15:00 +32°C° 0 mm 4 mps 761 mmHg 43%
    16:00 +32°C° 0 mm 4 mps 761 mmHg 44%
    17:00 +29°C° 0 mm 3 mps 761 mmHg 49%
    18:00 +28°C° 0 mm 2 mps 761 mmHg 55%
    19:00 +26°C° 0 mm 1 mps 761 mmHg 60%
    20:00 +26°C° 0 mm 1 mps 761 mmHg 60%
    21:00 +25°C° 0 mm 1 mps 762 mmHg 60%
    22:00 +25°C° 0 mm 1 mps 762 mmHg 60%
    23:00 +25°C° 0 mm 1 mps 762 mmHg 61%

    21 July, Sunday

    Time Temperature Precipitation Wind Pressure Humidity
    00:00 +25°C° 0 mm 1 mps 762 mmHg 61%
    01:00 +24°C° 0 mm 1 mps 762 mmHg 62%
    02:00 +24°C° 0 mm 1 mps 761 mmHg 63%
    03:00 +24°C° 0 mm 1 mps 761 mmHg 64%
    04:00 +24°C° 0 mm 1 mps 761 mmHg 65%
    05:00 +25°C° 0 mm 1 mps 761 mmHg 61%
    06:00 +26°C° 0 mm 1 mps 761 mmHg 58%
    07:00 +28°C° 0 mm 1 mps 762 mmHg 54%
    08:00 +29°C° 0 mm 2 mps 762 mmHg 51%
    09:00 +31°C° 0 mm 3 mps 762 mmHg 47%
    10:00 +33°C° 0 mm 3 mps 762 mmHg 44%
    11:00 +33°C° 0 mm 4 mps 762 mmHg 44%
    12:00 +34°C° 0 mm 4 mps 762 mmHg 43%
    13:00 +34°C° 0 mm 5 mps 761 mmHg 43%
    14:00 +34°C° 0 mm 4 mps 761 mmHg 44%
    15:00 +33°C° 0 mm 4 mps 761 mmHg 46%
    16:00 +32°C° 0 mm 4 mps 761 mmHg 48%
    17:00 +30°C° 0 mm 3 mps 761 mmHg 54%
    18:00 +28°C° 0 mm 2 mps 761 mmHg 60%
    19:00 +27°C° 0 mm 2 mps 761 mmHg 66%
    20:00 +26°C° 0 mm 2 mps 761 mmHg 67%
    21:00 +26°C° 0 mm 1 mps 761 mmHg 68%
    22:00 +25°C° 0 mm 1 mps 762 mmHg 69%
    23:00 +25°C° 0 mm 1 mps 761 mmHg 69%

    22 July, Monday

    Time Temperature Precipitation Wind Pressure Humidity
    00:00 +25°C° 0 mm 1 mps 761 mmHg 68%
    01:00 +25°C° 0 mm 1 mps 761 mmHg 68%
    02:00 +25°C° 0 mm 1 mps 761 mmHg 68%
    03:00 +25°C° 0 mm 1 mps 761 mmHg 68%
    04:00 +25°C° 0 mm 1 mps 760 mmHg 68%
    05:00 +26°C° 0 mm 1 mps 761 mmHg 64%
    06:00 +27°C° 0 mm 1 mps 761 mmHg 60%
    07:00 +29°C° 0 mm 1 mps 761 mmHg 56%
    08:00 +30°C° 0 mm 2 mps 761 mmHg 52%
    09:00 +32°C° 0 mm 2 mps 761 mmHg 48%
    10:00 +34°C° 0 mm 2 mps 761 mmHg 45%
    11:00 +35°C° 0 mm 3 mps 760 mmHg 44%
    12:00 +35°C° 0 mm 4 mps 760 mmHg 44%
    13:00 +36°C° 0 mm 4 mps 760 mmHg 44%
    14:00 +35°C° 0 mm 4 mps 759 mmHg 45%
    15:00 +34°C° 0 mm 4 mps 759 mmHg 47%
    16:00 +34°C° 0 mm 4 mps 759 mmHg 48%
    17:00 +31°C° 0 mm 3 mps 759 mmHg 54%
    18:00 +29°C° 0 mm 2 mps 759 mmHg 59%
    19:00 +28°C° 0 mm 1 mps 759 mmHg 65%
    20:00 +27°C° 0 mm 1 mps 759 mmHg 65%
    21:00 +27°C° 0 mm 1 mps 759 mmHg 65%
    22:00 +27°C° 0 mm 1 mps 759 mmHg 65%
    23:00 +26°C° 0 mm 1 mps 759 mmHg 66%
    Show more